Location: Eschentzwiller
(47.7125°N, 7.3981°E)
Time: 04:21:25
(UTC+00:00)

Cosmos 2278 - Pass Details

Date: 27 October 2020
Orbit: 841 x 851 km, 71.1° (Epoch: 01 December)

Event Time Altitude Azimuth Distance (km) Brightness Sun altitude
Rises 18:30:07 0° 187° (S) 3,398 6.9 -22.4°
Reaches altitude 10° 18:32:37 10° 182° (S) 2,465 6.1 -22.8°
Enters shadow 18:36:36 39° 149° (SSE) 1,245 4.3 -23.5°
